Location: Guilderland
(42.7045°N, 73.9115°W)
Time: 04:48:45
(UTC+00:00)

Cosmos 1939 Rocket - Pass Details

Date: 24 January 2020
Orbit: 534 x 583 km, 97.4° (Epoch: 18 February)

Event Time Altitude Azimuth Distance (km) Brightness Sun altitude
Rises 23:12:03 0° 152° (SSE) 2,688 6.2 -13.6°
Reaches altitude 10° 23:14:12 10° 145° (SE) 1,807 5.2 -14.0°
Maximum altitude 23:17:56 45° 73° (ENE) 757 3.0 -14.7°
Drops below altitude 10° 23:21:44 10° 0° (N) 1,847 5.4 -15.4°
Sets 23:23:57 0° 355° (N) 2,756 6.3 -15.8°
